Home   Weather   Bismarck   Past weeks
Flag for USA

Past Weather in Bismarck, North Dakota, USA — Yesterday and Last 2 Weeks

Now
55 °F

Light rain. Fog.


Feels Like: 52 °F
Forecast: 57 / 46 °F
Wind: 9 mph from South

Location: Bismarck Municipal Airport

Current Time: May 24, 2019 at 4:09:28 pm

Latest Report: May 24, 2019 at 3:10 pm


Visibility: 6 mi

Pressure: 29.56 "Hg (27.80 "Hg at 513m altitude)

Humidity: 87%

Dew Point: 51 °F

Location of BismarckLocation

Past Weather in Bismarck — Graph

°F

Bismarck Temperature Yesterday

Maximum temperature yesterday: 65 °F (at 2:52 pm)
Minimum temperature yesterday: 45 °F (at 5:52 am)
Average temperature yesterday: 53 °F

High & Low Weather Summary for the Past Weeks

 TemperatureHumidityPressure
High84 °F (May 15, 3:52 pm)100% (May 24, 8:52 am)30.23 "Hg (May 24, 8:52 am)
Low35 °F (May 20, 5:52 am)24% (May 9, 5:52 pm)29.57 "Hg (May 24, 2:18 pm)
Average52 °F68%29.89 "Hg
* Reported May 9 2:52 pm — May 24 2:52 pm, Bismarck. Weather by CustomWeather, © 2019

Note: Actual official high and low records may vary slightly from our data, if they occured in-between our weather recording intervals... More about our weather records

Advertising

Bismarck Weather History for the Previous 24 Hours

Scroll right to see more
 ConditionsComfort  
Time TempWeatherWind HumidityBarometerVisibility
2:52 pm
Fri, May 24
57 °FLight rain. Cloudy.8 mph83%29.58 "Hg8 mi
2:18 pm56 °FMostly cloudy.3 mph87%29.57 "Hg10 mi
1:52 pm55 °FLight rain. Fog.9 mph90%29.60 "Hg4 mi
1:20 pm55 °FCloudy.10 mph87%29.60 "Hg10 mi
1:02 pm54 °FMostly cloudy.14 mph90%29.61 "Hg10 mi
12:52 pm54 °FCloudy.12 mph90%29.62 "Hg10 mi
12:34 pm53 °FMostly cloudy.14 mph93%29.62 "Hg10 mi
12:22 pm52 °FFog.14 mph93%29.63 "Hg5 mi
11:52 am53 °FCloudy.15 mph89%29.65 "Hg10 mi
11:43 am53 °FMostly cloudy.15 mph89%29.64 "Hg10 mi
10:52 am51 °FLight rain. Low clouds.13 mph96%29.67 "Hg10 mi
10:36 am51 °FLight rain. Fog.17 mph96%29.66 "Hg5 mi
10:20 am51 °FLight rain. Fog.15 mph96%29.66 "Hg2 mi
10:00 am50 °FLight rain. Fog.16 mph96%29.67 "Hg2 mi
9:17 am49 °FLight rain. Fog.14 mph97%29.69 "Hg2 mi
8:52 am48 °FFog.15 mph100%29.71 "Hg2 mi
8:31 am48 °FLight rain. Fog.16 mph96%29.72 "Hg2 mi
7:52 am47 °FLight rain. Fog.12 mph97%29.76 "Hg4 mi
7:20 am47 °FLight rain. Fog.14 mph97%29.77 "Hg6 mi
7:04 am47 °FLight rain. Fog.10 mph97%29.78 "Hg5 mi
6:52 am47 °FLight rain. Fog.10 mph97%29.80 "Hg5 mi
6:36 am47 °FLight rain. Mostly cloudy.9 mph97%29.80 "Hg7 mi
6:07 am47 °FRain. Fog.9 mph97%29.82 "Hg6 mi
5:52 am47 °FRain. Fog.9 mph97%29.84 "Hg5 mi
5:31 am47 °FHeavy rain. Fog.10 mph97%29.85 "Hg4 mi
4:52 am48 °FRain. Fog.12 mph93%29.87 "Hg6 mi
3:52 am48 °FLight rain. Overcast.13 mph93%29.90 "Hg8 mi
2:52 am49 °FLight rain. Overcast.13 mph90%29.91 "Hg8 mi
1:52 am50 °FOvercast.12 mph83%29.95 "Hg10 mi
12:52 am49 °FPassing clouds.6 mph86%30.00 "Hg10 mi
11:52 pm
Thu, May 23
50 °FClear.7 mph83%30.03 "Hg10 mi
10:52 pm53 °FPassing clouds.6 mph74%30.04 "Hg10 mi
9:52 pm55 °FOvercast.8 mph69%30.06 "Hg10 mi
8:52 pm56 °FOvercast.10 mph67%30.07 "Hg10 mi
7:52 pm59 °FOvercast.16 mph60%30.06 "Hg10 mi
6:52 pm62 °FPartly sunny.16 mph50%30.06 "Hg10 mi
5:52 pm64 °FPassing clouds.17 mph45%30.06 "Hg10 mi
4:52 pm65 °FPartly sunny.16 mph40%30.07 "Hg10 mi
Weather by CustomWeather, © 2019

See weather overview